テイラー彗星

69P/Taylor (1997)

English version
Home page
Updated on September 29, 2004

---------------------------------------------------------------------

・ プロフィール

・ 写真集

・ 軌道要素

   The following improved orbital elements by Kenji Muraoka, 
  are from 360 observations  1990 Nov. 11  to  1999 Apr. 15, 
  including 9 Planets Moon and 5 minor planets perturbations 
  and non-gravitational effect of style II.  
   The mean residual is +/- 0.87 arc seconds.

      Epoch  =  1997 Dec. 18.0  TT       JDT = 2450800.5
          T  =  1997 Dec. 12.27163       +/- 0.00318 (m.e.) TT
       Peri. =  355.37636                +/- 0.00139
       Node  =  108.85859                +/- 0.00003   (2000.0)
       Incl. =   20.54699                +/- 0.00003
          q  =    1.9478423              +/- 0.0000022 AU
          e  =    0.4659871              +/- 0.0000027
          a  =    3.6475567              +/- 0.0000052 AU
          n  =    0.14148194             +/- 0.00000030
          P  =    6.966                  +/- 0.0000148  years
         A1  =   +2.238                  +/- 0.268
         A2  =   +0.60905                +/- 0.05127

・ 星図

・ 1997年 9月29日〜1998年12月13日

・ 光度変化

        m1 =  8.5 + 5 logΔ + 30   log r           [   ,-70]  (              〜1997年10月 3日)
        m1 = 40.8 + 5 logΔ - 78.5 log r(t + 100)  [-40, 75]  (1997年11月 2日〜1998年 2月25日)
        m1 =  4.8 + 5 logΔ + 20.0 log r           [ 75,   ]  (1998年 2月25日〜              )

        ※ 灰色の曲線は、m1 = 8.5 + 5 logΔ + 30 log r の光度曲線です。

---------------------------------------------------------------------

軌道要素は村岡健治氏の計算によるものです。
星図は StellaNavigator Ver.2.0 for Windows (アストロアーツ 編著 / アスキー出版局刊) で作成したものです。
光度グラフはComet for Windowsで作成したものです。

---------------------------------------------------------------------

Copyright(C) Seiichi Yoshida (comet@aerith.net). All rights reserved.